Lid_Strength_Index
6 5 4 3 3 3 3 2 2 2 1 1 2 2 2 3 4 4 5 4 5 5
8 7 7 7 5 5 4 4 4 4 3 1 1 1 1 1 2 3 3 4 4 4
8 8 7 7 7 7 6 6 6 6 5 5 4 3 2 3 2 3 4 4 5 5
9 9 8 8 8 8 8 8 8 7 7 7 6 5 5 3 3 3 3 3 4 5
11 11 11 11 10 10 10 9 9 9 8 8 7 7 7 6 5 5 5 5 5 5
12 12 12 12 12 12 11 11 10 10 10 9 8 8 7 6 6 6 6 6 6 6
12 12 12 12 12 12 12 12 12 11 11 10 10 9 9 8 7 7 7 6 6 6
13 13 13 13 13 13 13 12 12 12 12 12 12 11 10 10 10 10 9 8 7 7
14 14 14 14 14 14 14 14 14 14 14 13 12 11 10 10 10 10 10 9 8 8
15 15 15 15 15 15 15 14 14 14 14 14 13 12 11 10 11 10 9 9 9 9
15 15 16 16 16 16 15 16 15 15 14 14 13 11 10 10 10 10 10 9 9 9
16 16 17 17 17 16 16 16 16 15 15 15 13 11 10 10 10 10 10 9 9 9
16 17 18 17 17 16 16 16 16 15 14 14 14 12 10 10 10 11 11 10 10 10
16 17 17 17 16 17 17 16 16 15 13 14 13 13 11 10 10 11 11 10 10 10